Regional Weather Roundup
Issued by NWS

Home | Current Version | Previous Version | Graphics & Text | Print | Product List | Glossary Off
Versions: 1 2 3 4 5 6 7 8 9 10 11 12 13 14 15 16 17 18 19 20 21 22 23 24 25 26 27 28 29 30 31 32 33 34 35 36 37 38 39 40 41 42 43 44 45 46 47 48 49 50

000
ASUS43 KBIS 221310
RWRND

NORTH DAKOTA REGIONAL WEATHER ROUNDUP
NATIONAL WEATHER SERVICE BISMARCK ND
800 AM CDT SAT JUL 22 2017

NOTE: "FAIR" INDICATES FEW OR NO CLOUDS BELOW 12,000 FEET WITH NO
SIGNIFICANT WEATHER AND/OR OBSTRUCTIONS TO VISIBILITY.


NDZ001>003-009>011-017-221400-
NORTHWEST NORTH DAKOTA

CITY           SKY/WX    TMP DP  RH WIND       PRES   REMARKS
WILLISTON      SUNNY     63  47  55 SW6       29.99R
MINOT          SUNNY     64  55  72 W9        29.92R
MINOT AFB      SUNNY     62  56  80 W9        29.91R
$$

NDZ018>021-031>035-040>046-221400-
SOUTHWEST NORTH DAKOTA

CITY           SKY/WX    TMP DP  RH WIND       PRES   REMARKS
BISMARCK       SUNNY     66  61  84 W6        29.95R
DICKINSON      SUNNY     62  52  69 SW3       30.00R
GARRISON         N/A     60  53  77 NW7       29.94R
HETTINGER ARPT MOSUNNY   56  50  80 W3        30.04R
$$

NDZ004>008-012>016-024-026-027-054-221400-
NORTHEAST NORTH DAKOTA

CITY           SKY/WX    TMP DP  RH WIND       PRES   REMARKS
GRAND FORKS    SUNNY     69  66  90 W7        29.79R
GRND FRKS AFB  SUNNY     69  65  88 W8        29.80R
DEVILS LAKE    SUNNY     66  62  87 NW14      29.87R
$$

NDZ022-023-025-028>030-036>039-047>053-221400-
SOUTHEAST NORTH DAKOTA

CITY           SKY/WX    TMP DP  RH WIND       PRES   REMARKS
FARGO          SUNNY     70  65  84 SW8       29.83R
JAMESTOWN      SUNNY     67  63  87 SW5       29.88R
$$




USA.gov is the U.S. government's official web portal to all federal, state and local government web resources and services.